Find Starlink 3232

NORAD ID: 50809 Int'l Des: 2022-001 Owner: SPXS Country: US Constellation: starlink operational
LEOCIRCULAR

リアルタイム位置

3D地球を読み込み中...

Starlink 3232について

説明を読み込み中...

次回通過

Passes for default location (London). Set your location on the main map for personalized predictions.

高度履歴

Loading altitude history...

軌道要素

1 50809U 22001G 26121.73618323 .00001080 00000-0 85951-4 0 9993
2 50809 53.2177 280.9870 0001229 95.9845 264.1287 15.08838479238553
Epoch: May 1, 2026 • Age: 8 hours

現在のステータス

高度 542.5 km
速度 7.60 km/s
衛星直下点 38.87°N, 68.63°E
打ち上げ日 Jan 6, 2022
運用期間 4.3 years
タイプ internet

技術仕様

分類 Payload
質量 297.00 kg
乾燥質量 275.00 kg
総質量 297.00 kg
長さ 0.20 m
直径 2.80 m
スパン 9.00 m
形状 Box + pan
製造者 SPXS
バスタイプ Starlink
フェーズステータス In Orbit
所有者/国 SPXS/US

Most Searched